DW8961 Weather Reports


time (UTC)temp
C
wind
direction
speed
KPH
gust
KPH
rain 1hr
cm
rain 24hr
cm
rain mn
cm
humidity
%
barometer
mb
20260502123016 11 0.0 6.4 0.00 0.00 0.00 88 1016.0
20260502122016 10 315 1.6 4.8 0.00 0.00 0.00 87 1016.1
20260502121016 11 0.0 1.6 0.00 0.00 0.00 87 1016.3
20260502115016 11 270 1.6 4.8 0.00 0.00 0.00 86 1016.3
20260502114016 11 0.0 0.0 0.00 0.00 0.00 87 1016.4
20260502113016 11 0.0 3.2 0.00 0.00 0.00 86 1016.6
20260502112016 11 315 1.6 3.2 0.00 0.00 0.00 86 1016.6
20260502111017 11 270 1.6 3.2 0.00 0.00 0.00 85 1016.5
20260502105016 11 248 6.4 12.9 0.00 0.00 0.00 85 1016.9
20260502104016 11 248 6.4 14.5 0.00 0.00 0.00 84 1017.1
20260502103016 11 248 9.7 16.1 0.00 0.00 0.00 84 1017.0
20260502102036 11 225 11.3 17.7 0.00 0.00 0.00 84 1017.0
20260502101016 11 248 8.0 14.5 0.00 0.00 0.00 84 1016.4
20260502091016 12 270 3.2 6.4 0.00 0.00 0.00 82 1016.1
20260502071036 15 248 6.4 9.7 0.00 0.00 0.00 75 1016.1
20260502070016 15 248 6.4 11.3 0.00 0.00 0.00 74 1016.2
20260502065016 15 248 6.4 11.3 0.00 0.00 0.00 72 1015.9
20260502064017 16 225 6.4 11.3 0.00 0.00 0.00 71 1016.0
20260502063016 16 248 6.4 12.9 0.00 0.00 0.00 69 1016.1
20260502062017 16 248 4.8 9.7 0.00 0.00 0.00 68 1016.0
20260502061016 16 248 6.4 11.3 0.00 0.00 0.00 68 1016.0
20260502060016 16 248 8.0 11.3 0.00 0.00 0.00 68 1015.8
20260502055036 16 270 3.2 8.0 0.00 0.00 0.00 69 1015.7
20260502054017 16 225 6.4 9.7 0.00 0.00 0.00 68 1015.7
20260502053018 17 225 4.8 9.7 0.00 0.00 0.00 68 1015.6
20260502052017 17 225 6.4 11.3 0.00 0.00 0.00 67 1015.5
20260502051017 17 270 3.2 6.4 0.00 0.00 0.00 67 1015.3
20260502050016 17 270 1.6 4.8 0.00 0.00 0.00 66 1015.2
20260502045017 17 0.0 3.2 0.00 0.00 0.00 65 1015.1
20260502044017 17 248 1.6 3.2 0.00 0.00 0.00 64 1015.0
20260502043017 17 270 1.6 4.8 0.00 0.00 0.00 63 1015.0
20260502042017 17 270 3.2 4.8 0.00 0.00 0.00 64 1015.0
20260502041017 18 270 3.2 4.8 0.00 0.00 0.00 62 1014.9
20260502040017 18 270 4.8 9.7 0.00 0.00 0.00 61 1014.7
20260502035017 18 0.0 0.0 0.00 0.00 0.00 62 1014.6
20260502034016 18 270 1.6 4.8 0.00 0.00 0.00 61 1014.4
20260502033017 18 0.0 3.2 0.00 0.00 0.00 57 1014.3
20260502032016 19 338 1.6 4.8 0.00 0.00 0.00 57 1014.1
20260502031017 19 0.0 3.2 0.00 0.00 0.00 58 1014.1
20260502030016 20 338 1.6 8.0 0.00 0.00 0.00 56 1014.1
20260502025017 20 23 1.6 4.8 0.00 0.00 0.00 55 1013.8
20260502024016 20 338 4.8 8.0 0.00 0.00 0.00 53 1013.8
20260501224155 23 338 3.2 9.7 0.00 0.00 0.00 45 1014.6
20260501223037 23 270 1.6 6.4 0.00 0.00 0.00 49 1014.6
20260501222016 23 338 3.2 11.3 0.00 0.00 0.00 48 1014.8
20260501221016 23 270 6.4 11.3 0.00 0.00 0.00 46 1015.0
20260501220016 23 270 6.4 12.9 0.00 0.00 0.00 49 1015.0
20260501215038 22 270 4.8 11.3 0.00 0.00 0.00 46 1015.1
20260501214018 22 270 4.8 11.3 0.00 0.00 0.00 46 1015.1
20260501213016 23 270 4.8 11.3 0.00 0.00 0.00 47 1015.1
20260501212017 23 270 4.8 9.7 0.00 0.00 0.00 47 1015.2
20260501211016 23 270 6.4 11.3 0.00 0.00 0.00 49 1015.2
20260501210016 22 270 4.8 9.7 0.00 0.00 0.00 48 1015.2
20260501205016 22 270 4.8 9.7 0.00 0.00 0.00 49 1015.2
20260501204018 22 270 4.8 9.7 0.00 0.00 0.00 50 1015.3
20260501203017 22 270 3.2 9.7 0.00 0.00 0.00 52 1015.3
20260501202017 22 270 4.8 11.3 0.00 0.00 0.00 53 1015.4
20260501201016 22 270 3.2 6.4 0.00 0.00 0.00 53 1015.4
20260501200017 21 270 4.8 8.0 0.00 0.00 0.00 54 1015.4
20260501195016 21 338 3.2 9.7 0.00 0.00 0.00 53 1015.3
20260501194016 22 338 3.2 8.0 0.00 0.00 0.00 54 1015.5
20260501193016 22 270 3.2 8.0 0.00 0.00 0.00 56 1015.5
20260501192017 21 270 8.0 14.5 0.00 0.00 0.00 55 1015.5
20260501191017 21 270 4.8 11.3 0.00 0.00 0.00 56 1015.6
20260501190037 21 270 4.8 12.9 0.00 0.00 0.00 57 1015.6
20260501185037 21 270 4.8 9.7 0.00 0.00 0.00 58 1015.8
20260501184016 20 270 3.2 4.8 0.00 0.00 0.00 57 1015.8
20260501183016 20 270 1.6 4.8 0.00 0.00 0.00 58 1015.8
20260501182017 20 270 3.2 6.4 0.00 0.00 0.00 58 1015.9
20260501181016 19 270 1.6 4.8 0.00 0.00 0.00 58 1016.0
20260501180036 19 270 3.2 4.8 0.00 0.00 0.00 59 1016.1
20260501175037 19 270 4.8 9.7 0.00 0.00 0.00 59 1016.2
20260501174016 18 293 3.2 6.4 0.00 0.00 0.00 62 1016.1
20260501173058 18 270 3.2 6.4 0.00 0.00 0.00 64 1016.2
20260501172038 18 45 1.6 4.8 0.00 0.00 0.00 63 1016.2
20260501171016 17 68 1.6 6.4 0.00 0.00 0.00 64 1016.2
20260501170017 17 68 1.6 4.8 0.00 0.00 0.00 65 1016.3
20260501165036 16 45 1.6 4.8 0.00 0.00 0.00 70 1016.4
20260501164016 16 0 3.2 4.8 0.00 0.00 0.00 72 1016.4
20260501163016 16 23 1.6 4.8 0.00 0.00 0.00 72 1016.5
20260501162037 15 45 1.6 4.8 0.00 0.00 0.00 76 1016.7
20260501161016 15 45 3.2 6.4 0.00 0.00 0.00 77 1016.9
20260501160016 15 45 4.8 6.4 0.00 0.00 0.00 77 1016.9
20260501155017 15 45 3.2 6.4 0.00 0.00 0.00 78 1016.9
20260501154036 15 0.0 3.2 0.00 0.00 0.00 78 1016.9
20260501153017 15 0.0 3.2 0.00 0.00 0.00 79 1016.8
20260501152017 14 0.0 0.0 0.00 0.00 0.00 80 1016.8
20260501151037 13 248 1.6 4.8 0.00 0.00 0.00 80 1016.7
20260501150016 13 248 3.2 4.8 0.00 0.00 0.00 83 1016.7